[Iaude] MPEC F95: 2024 FX2 [a=2.13,e=0.53,i=3.5,H=23.3]

mpec at cfa.harvard.edu mpec at cfa.harvard.edu
Thu Mar 28 16:58:04 EDT 2024


M.P.E.C. 2024-F95                                Issued 2024 March 28, 20:56 UT

     The Minor Planet Electronic Circulars contain information on unusual
         minor planets, routine data on comets and natural satellites,
         and occasional editorial announcements.  They are published
    on behalf of Division F of the International Astronomical Union by the
          Minor Planet Center, Smithsonian Astrophysical Observatory,
                          Cambridge, MA 02138, U.S.A.
			  
             Prepared using the Tamkin Foundation Computer Network

                              MPC at CFA.HARVARD.EDU
            URL https://www.minorplanetcenter.net/    ISSN 1523-6714

                                    2024 FX2                                    


Observations:
     K24F02X*2C2024 03 26.11027209 16 24.898-20 29 18.55         19.0 GVEF095W57
     K24F02X 2C2024 03 26.11838709 16 30.551-20 29 42.89         20.2 GVEF095W57
     K24F02X 2C2024 03 26.12559209 16 35.769-20 30 03.95         20.4 GVEF095W57
     K24F02X 2C2024 03 26.13319509 16 41.131-20 30 25.89         20.0 GVEF095W57
     K24F02X 3C2024 03 26.74390709 24 12.624-20 59 58.10         20.2 GVEF095K91
     K24F02X 3C2024 03 26.74575509 24 13.951-21 00 03.89         19.4 GVEF095K91
     K24F02X 3C2024 03 26.74790409 24 15.444-21 00 10.04         19.6 GVEF095K91
     K24F02X 3C2024 03 26.81264609 25 00.048-21 03 13.94         19.8 GVEF095K91
     K24F02X 3C2024 03 26.81837209 25 04.013-21 03 29.47         19.8 GVEF095K91
     K24F02X 3C2024 03 26.82382909 25 07.760-21 03 44.62         19.8 GVEF095K91
     K24F02X KB2024 03 27.56371 09 33 57.19 -21 37 46.7          20.0 GVEF095O46
     K24F02X KB2024 03 27.57427 09 34 04.19 -21 38 13.2          20.0 GVEF095O46
     K24F02X KC2024 03 27.80569 09 36 46.53 -21 46 30.3                VEF095M21
     K24F02X KC2024 03 27.83132 09 37 03.47 -21 47 33.7          19.8 GVEF095M21
     K24F02X 0B2024 03 27.87909 09 37 34.918-21 49 27.84         19.9 VZEF095M49
     K24F02X 0B2024 03 27.89044 09 37 42.415-21 49 54.37         19.8 VZEF095M49
     K24F02X 0B2024 03 27.90238 09 37 50.299-21 50 21.98         19.8 VZEF095M49
     K24F02X 0B2024 03 27.91950 09 38 01.594-21 51 01.80         19.8 VZEF095M49
     K24F02X 0B2024 03 27.93115 09 38 09.338-21 51 28.51         20.7 VZEF095M49
     K24F02X 0B2024 03 27.94340 09 38 17.436-21 51 56.16         19.7 VZEF095M49
     K24F02X KC2024 03 28.09837009 40 09.33 -21 59 27.8          19.7 GVEF095H21
     K24F02X KC2024 03 28.10121509 40 11.21 -21 59 34.4          19.9 GVEF095H21
     K24F02X KC2024 03 28.10405809 40 13.07 -21 59 41.1          19.7 GVEF095H21

Observer details:
H21 Astronomical Research Observatory, Westfield.  Observer R. Holmes.
    Measurers T. Linder, R. Holmes, L. Horn.  0.81-m f/4.0 astrograph + CCD.
K91 Sutherland-LCO A.  Observers T. Santana-Ros, F. Ocana, M. Micheli, L.
    Conversi.  Measurers F. Ocana, M. Micheli.  1.0-m reflector + CCD.
M21 Schiaparelli Southern Observatory, Hakos.  Observers A. Aletti, F.
    Bellini, L. Buzzi, G. Galli.  Measurer L. Buzzi.  0.36-m f/8.4 reflector +
    CCD.
M49 IAS Remote Observatory, Hakos.  Observers D. Husar, M. Junius.  Measurer
    D. Husar.  0.25-m f/4.5 reflector + CMO.
O46 Daocheng Glacier Observatory.  Observer Z. Wang.  0.25-m f/8 reflector +
    CMO.
W57 ESA TBT La Silla Observatory.  Observers R. Kresken, F. Ocana, M.
    Micheli, D. Fohring, M. Devogele, L. Conversi, R. Moissl, L. Faggioli, M.
    Fenucci, F. Gianotto, C. Drury, L. Gisolfi, J. L. Cano, D. Oliviero, A.
    Porru, R. Rudawska, G. Di Girolamo, E. Doelling, P. Ramirez-Moreta.
    Measurers R. Kresken, M. Micheli, F. Ocana, D. Fohring.  0.56-m f/2.52
    astrograph prime-focus corrector + 4K CCD.

Orbital elements:
2024 FX2                                                 Earth MOID = 0.0232 AU
Epoch 2024 Mar. 31.0 TT = JDT 2460400.5                 MPC                     
M  10.45192              (2000.0)            P               Q                  
n   0.31615380     Peri.  201.60513     -0.86769325     -0.49486181             
a   2.1340460      Node   308.64698     +0.46446112     -0.77329084             
e   0.5305320      Incl.    3.45883     +0.17715615     -0.39640012             
P   3.12           H   23.38          G   0.15           U   9                  
Residuals in seconds of arc
240326 W57  0.4-  0.1-    240326 K91  0.0   0.0     240327 M49  0.2+  0.3+
240326 W57  1.1-  0.3-    240326 K91  0.0   0.0     240327 M49  0.1-  0.0
240326 W57  1.0+  0.1+    240327 O46  0.7+  0.8-    240327 M49  0.4+  0.0
240326 W57  1.1+  0.7+    240327 O46  0.2-  0.4-    240327 M49  0.1-  0.2+
240326 K91  0.5-  0.4+    240327 M21  0.2+  0.4+    240328 H21  0.0   0.1-
240326 K91  0.1+  0.1-    240327 M21  0.6+  0.2-    240328 H21  0.1+  0.1+
240326 K91  0.2+  0.1-    240327 M49  0.1+  0.0     240328 H21  0.1-  0.0
240326 K91  0.4-  0.4-    240327 M49  0.2+  0.1+

Ephemeris:
2024 FX2                 a,e,i = 2.13, 0.53, 3                   q = 1.0019
Date    TT    R. A. (2000) Decl.     Delta      r    Elong.  Phase     V
2024 02 27    04 35 50.8 +11 56 30   0.1285  1.0018    91.5    81.1    21.8
...
2024 03 13    06 30 53.2 -03 15 39   0.08812 1.0193   104.3    70.9    20.6
...
2024 03 21    08 10 10.9 -14 54 23   0.08461 1.0421   120.9    55.1    20.1
...
2024 03 27    09 27 14.2 -21 12 03   0.09438 1.0646   133.2    43.1    20.1
2024 03 28    09 38 59.7 -21 54 17   0.09696 1.0688   135.0    41.4    20.1
2024 03 29    09 50 18.6 -22 30 51   0.09977 1.0731   136.6    39.7    20.1
...
2024 04 04    10 48 03.1 -24 32 53   0.1210  1.1010   144.6    31.8    20.4
...
2024 04 12    11 40 48.3 -24 41 33   0.1584  1.1435   151.0    25.2    20.8
...
2024 04 27    12 36 22.0 -22 49 38   0.2492  1.2357   154.3    20.7    21.8

A. U. Tomatic                (C) Copyright 2024 MPC           M.P.E.C. 2024-F95





More information about the Iaude mailing list